Theta_e
343 351 350 348 348 347 348 346 345 343 340 336 332 330 327 323 322 323 325 327 326 325 325 324 324 323 324 324 323 323 325 324 322 322 322 321 320 318 318 321 321 322 324
344 350 349 347 346 346 346 341 338 334 330 328 326 324 322 321 319 319 318 318 318 319 318 318 318 318 317 317 316 316 317 318 316 314 316 317 316 317 316 316 318 322 321
346 345 344 345 343 341 337 334 332 331 328 324 322 321 320 319 318 317 317 317 315 313 309 306 307 311 312 312 313 314 314 312 309 306 306 306 308 311 313 313 314 317 320
344 343 341 338 334 331 330 327 324 321 320 318 317 316 315 313 312 311 311 311 310 308 307 303 309 313 313 312 312 311 310 309 308 307 308 308 308 308 310 310 310 312 313
340 339 334 327 326 324 323 321 319 318 317 315 313 311 310 309 309 308 307 305 305 304 303 309 313 312 312 310 310 310 308 306 306 305 305 306 306 306 306 306 306 307 308
334 330 326 324 321 319 317 316 315 313 310 308 308 307 305 305 305 306 305 304 305 307 309 311 310 310 309 308 307 305 302 303 305 305 305 305 305 305 305 305 305 304 305
324 321 318 316 316 315 313 311 309 307 304 304 304 305 306 307 306 305 304 304 305 306 307 307 307 306 306 304 304 302 302 303 304 304 304 304 305 305 305 306 306 306 306
316 316 315 315 314 312 309 305 304 304 305 306 307 308 307 307 307 307 306 306 306 305 306 306 306 305 305 304 302 302 303 303 304 304 305 306 306 307 306 306 306 306 307
314 314 313 311 309 305 303 304 305 306 307 309 309 308 308 308 306 305 305 304 304 304 304 304 304 304 303 302 303 304 305 305 306 306 307 307 307 307 306 305 304 303 304
311 309 306 304 303 303 304 305 308 309 309 309 308 308 307 305 304 305 304 303 303 304 303 303 303 302 302 303 305 305 303 305 306 307 307 307 306 305 304 304 303 302 302
305 303 303 304 304 305 306 307 308 309 309 307 306 305 304 305 305 303 303 303 302 302 301 301 301 301 303 304 304 304 304 304 304 303 304 303 303 302 302 301 301 302 302
303 303 305 305 306 305 307 308 306 306 305 304 304 304 304 304 303 302 302 302 301 300 299 300 300 302 302 301 302 302 303 302 302 302 302 302 302 302 303 302 302 302 303
304 304 305 305 305 305 305 305 305 305 304 304 304 303 303 302 301 302 301 301 300 300 300 300 300 300 301 301 300 301 301 301 300 299 298 297 297 300 301 301 302 305 308
305 306 306 304 305 305 305 305 305 304 304 304 303 303 302 301 301 302 301 300 300 300 301 301 300 299 299 299 300 299 298 296 294 293 293 294 296 298 300 301 304 307 309
303 304 304 304 304 304 304 304 304 304 304 304 303 301 301 301 302 302 301 300 300 300 299 299 299 298 297 294 293 294 294 294 295 294 294 295 296 298 301 303 303 305 304
304 304 303 303 302 302 303 303 303 304 304 303 302 302 301 301 301 301 300 300 300 299 298 294 293 292 293 293 293 293 293 292 292 295 296 297 298 300 302 304 304 304 306
304 303 303 302 302 301 301 301 301 300 301 302 301 301 300 300 300 300 300 299 298 295 293 294 294 294 294 293 293 293 293 292 293 296 297 298 300 301 302 304 305 306 309
301 302 302 302 302 301 301 300 300 299 299 300 300 298 297 296 295 294 292 292 293 294 294 294 294 294 293 293 291 291 291 294 295 297 297 299 299 300 302 303 305 305 306
301 301 301 301 301 300 300 299 299 298 298 298 297 296 295 294 294 294 294 293 294 294 294 294 293 293 292 290 290 291 293 294 294 296 297 298 299 299 300 302 304 306 308
300 301 301 301 300 300 299 299 298 297 297 297 297 296 295 295 294 294 294 294 294 294 293 293 293 291 289 289 289 290 292 294 295 296 297 297 298 298 298 300 303 304 308
300 300 300 299 299 299 299 298 297 295 294 296 296 295 295 295 295 294 294 294 294 293 293 292 292 289 288 289 289 289 291 293 294 295 296 296 296 297 298 298 299 304 305
299 299 300 300 300 299 299 299 298 297 295 294 295 295 295 294 294 294 294 293 293 292 292 291 291 288 288 288 288 289 289 291 292 294 295 295 296 296 297 297 297 300 304
299 300 300 300 300 300 300 299 297 296 295 295 294 294 294 294 293 293 293 292 292 292 291 290 290 288 287 287 288 288 289 289 291 292 294 295 295 295 295 296 297 297 300
300 300 300 300 299 299 298 297 296 295 295 294 294 294 293 293 293 292 292 291 291 291 290 289 289 288 287 287 287 288 288 288 289 290 294 295 295 294 295 295 297 296 295
299 298 298 298 297 297 296 296 295 295 294 294 293 293 292 292 291 291 291 291 290 290 289 289 288 288 287 287 287 287 288 288 289 290 293 294 294 293 294 294 295 295 294
297 297 297 296 296 295 295 294 294 294 294 293 292 292 291 291 291 290 290 290 290 289 289 288 287 287 286 287 287 287 287 288 288 289 290 293 294 293 293 293 294 294 293
Wind_Speed
34 32 34 33 32 28 26 24 21 19 15 12 10 8 6 4 3 4 5 5 8 10 9 8 10 13 13 14 13 13 12 13 15 17 17 19 20 21 17 17 18 14 16
35 37 38 34 32 32 28 25 22 22 19 16 13 10 6 4 4 6 8 9 11 12 13 14 14 15 16 16 17 17 18 18 21 25 23 24 23 18 17 15 13 15 20
37 36 34 34 33 31 30 28 25 21 18 15 12 9 6 6 8 10 12 12 13 13 15 15 14 14 15 15 17 19 21 22 23 23 24 22 23 24 24 21 17 13 15
37 36 34 33 34 33 30 26 23 20 15 11 8 5 6 8 9 11 14 17 19 19 17 11 9 11 13 14 18 21 22 21 22 22 21 20 19 19 22 26 28 25 23
41 38 36 35 32 30 27 23 18 14 11 7 5 6 8 10 12 14 17 20 20 15 6 4 6 8 11 15 16 20 22 22 18 20 21 23 24 24 24 26 28 31 32
42 39 35 31 28 26 22 18 14 10 5 3 6 7 10 12 14 16 15 11 8 7 6 5 9 12 15 19 21 17 17 15 15 16 19 20 22 22 23 25 28 31 32
39 35 31 28 25 21 16 12 8 5 2 4 4 7 8 10 10 10 8 7 9 8 5 4 9 14 14 15 19 18 15 9 10 14 18 19 23 24 25 26 26 27 31
36 32 29 24 19 15 11 7 4 3 2 2 2 4 6 6 7 8 8 8 10 9 9 7 8 11 14 19 20 14 12 8 8 11 15 17 16 17 17 19 22 25 28
33 28 22 18 15 11 8 6 6 4 4 3 2 3 4 5 6 6 6 8 6 4 8 8 9 11 16 18 15 16 12 9 10 10 12 14 14 16 15 20 23 28 34
25 20 15 12 9 8 7 7 8 6 5 4 5 6 6 7 5 7 8 7 6 2 4 5 8 13 15 14 15 16 17 18 17 13 13 17 16 19 19 22 27 31 33
18 15 12 10 8 7 7 7 7 8 9 8 10 10 10 9 9 10 9 9 8 6 4 4 8 9 11 13 13 14 16 17 18 18 20 21 23 24 26 25 25 28 33
14 15 11 7 7 5 10 13 14 14 15 13 10 9 8 9 12 12 11 10 8 9 10 10 10 9 11 11 10 11 16 19 21 22 24 26 28 29 29 27 26 25 29
12 10 9 8 10 13 13 16 17 16 14 11 7 6 3 7 10 9 10 12 10 14 13 11 9 7 7 10 14 17 18 20 23 26 28 28 29 30 29 26 23 24 26
9 8 7 5 7 10 11 11 13 14 15 11 8 7 1 4 7 9 11 12 13 12 7 5 6 10 9 12 16 20 21 22 25 26 28 29 28 26 23 22 25 27 24
2 2 2 6 8 8 10 11 11 11 8 7 7 6 5 7 8 10 10 12 10 8 6 7 9 14 17 21 25 25 25 26 29 29 29 28 26 25 24 25 24 25 27
7 7 5 8 7 10 11 13 12 9 8 9 9 8 10 10 9 9 10 9 9 8 11 17 20 22 25 27 29 30 31 33 33 30 26 25 26 28 29 27 27 29 27
8 13 9 6 12 12 11 9 9 13 12 11 10 10 11 11 12 13 12 12 12 13 22 26 27 29 30 29 29 27 28 28 27 24 24 25 29 32 32 30 31 30 28
9 13 14 12 10 10 9 10 11 12 13 15 14 16 15 14 15 16 17 16 19 21 26 27 25 24 22 21 23 23 25 25 24 23 26 28 31 35 36 35 33 32 31
15 17 15 13 11 9 10 10 10 10 11 15 19 19 17 17 22 22 21 23 22 23 22 19 15 17 18 22 22 25 25 25 25 25 28 29 31 36 39 39 34 31 29
16 14 13 12 11 10 10 10 11 12 9 9 15 13 13 15 17 17 17 17 17 17 17 14 16 19 20 22 24 25 25 26 26 25 28 30 32 33 38 42 38 34 28
16 13 13 14 12 9 10 10 15 14 15 18 19 16 12 13 12 13 12 12 12 12 11 12 16 20 21 22 24 26 25 25 25 24 26 29 31 32 35 38 39 36 35
16 16 15 13 12 11 12 16 15 13 14 17 16 14 11 10 11 11 10 10 10 10 9 10 15 20 22 23 24 25 26 25 25 23 23 27 29 33 34 34 38 37 33
19 17 14 13 12 13 13 13 15 14 15 15 11 9 8 12 13 11 9 9 8 9 10 9 15 18 20 21 23 25 26 26 24 23 22 24 27 32 31 33 35 38 34
22 17 10 13 17 14 18 17 16 15 14 11 9 9 9 11 10 10 10 7 6 7 10 11 14 16 19 20 22 23 25 24 24 22 17 22 25 27 30 33 32 36 39
21 20 18 15 15 13 16 18 17 15 16 14 13 11 10 9 8 8 7 7 6 5 8 11 12 15 18 19 20 22 22 22 23 20 15 18 20 25 28 31 30 33 39
19 15 18 20 19 19 19 18 16 15 14 13 12 10 10 8 6 7 6 5 3 3 7 9 12 14 16 18 20 21 21 21 22 20 17 15 17 23 28 30 28 31 36
Wind_Direction
177 181 186 186 189 185 180 182 175 172 173 166 160 160 158 137 138 185 218 225 270 278 273 281 286 291 290 288 296 301 300 307 310 305 303 306 314 325 325 325 320 297 269
175 173 170 170 175 174 173 162 157 150 148 147 151 159 168 202 244 258 277 287 285 289 298 295 295 300 302 303 298 296 295 296 304 306 302 300 304 306 307 303 295 293 297
168 173 164 162 167 159 157 157 158 158 158 158 168 180 195 235 266 281 284 285 293 301 304 306 306 304 307 303 303 302 303 304 304 306 306 302 294 291 290 287 290 285 265
165 164 162 156 154 155 157 155 155 154 154 163 184 204 254 261 274 278 283 291 295 300 306 303 303 304 296 303 302 305 307 310 314 312 311 309 305 299 299 302 291 284 283
156 153 150 151 152 150 150 150 151 154 158 169 232 257 272 291 296 299 303 307 311 312 297 288 321 322 326 322 317 311 317 322 325 327 328 329 328 329 330 320 314 306 296
144 146 147 147 147 146 147 146 150 151 159 216 255 279 294 307 316 325 329 344 359 14 31 10 325 307 308 309 315 324 331 329 331 325 323 323 323 325 324 325 324 324 325
134 134 137 140 142 143 143 146 147 147 153 243 287 304 323 331 345 356 15 9 13 12 350 331 312 324 334 342 340 334 328 312 302 308 313 320 322 325 322 321 322 320 317
123 131 135 140 141 140 140 139 128 129 190 258 329 353 11 17 46 44 52 34 51 46 30 12 337 332 334 333 339 350 2 2 339 320 321 326 328 341 340 330 323 320 318
134 139 144 146 143 143 141 133 140 161 149 109 70 40 62 69 61 49 30 10 27 39 31 12 347 335 341 338 349 349 1 10 7 0 346 339 320 329 335 335 342 338 328
136 136 140 136 139 144 135 135 147 155 133 123 116 89 88 78 58 26 13 16 28 103 50 0 340 336 333 353 358 2 1 3 353 343 328 322 327 331 334 331 330 327 327
121 122 126 117 120 127 135 143 163 145 137 112 88 71 54 39 34 24 17 16 18 8 36 331 334 351 9 9 6 360 349 340 334 330 333 332 325 323 322 321 319 318 316
110 121 128 118 107 139 138 128 115 106 97 97 90 72 32 11 17 16 17 14 7 22 31 22 20 23 16 13 349 338 328 327 329 328 325 326 325 323 321 321 320 320 319
106 110 117 125 130 122 122 136 129 116 117 129 102 76 31 357 6 21 29 25 47 63 56 47 36 9 350 338 331 329 329 335 339 334 334 330 323 322 321 323 329 331 330
95 124 134 130 135 148 149 140 142 144 149 153 149 153 247 13 39 42 42 49 65 72 60 31 354 345 342 340 343 350 352 355 357 353 349 344 343 344 349 349 342 344 340
160 155 151 124 143 150 142 135 143 145 136 143 137 115 78 62 51 43 47 57 53 42 10 342 10 22 16 16 19 22 20 15 7 5 359 354 357 1 0 358 352 350 352
156 176 148 127 122 126 115 117 120 125 135 131 104 83 67 56 48 49 58 46 36 36 40 38 36 40 38 30 24 19 16 11 4 5 8 7 6 8 8 7 5 2 359
164 175 159 123 120 111 96 89 112 115 120 112 94 78 71 61 53 46 47 47 46 55 62 51 42 34 28 21 15 11 7 0 4 14 14 15 17 18 14 12 9 7 4
168 152 138 129 122 113 105 108 108 106 100 93 96 80 72 68 61 63 59 65 75 65 53 42 34 30 22 10 7 12 12 18 21 21 19 21 21 20 19 15 12 7 3
134 132 134 140 146 143 132 119 106 97 103 101 93 84 69 64 65 61 57 59 72 62 54 48 24 11 13 17 20 25 26 28 26 23 22 24 23 23 21 19 12 9 10
144 152 148 159 154 154 147 149 134 117 112 111 109 91 92 64 69 67 60 48 56 59 58 33 16 16 20 22 24 27 29 29 29 29 25 25 23 19 20 17 15 12 9
151 148 143 146 141 130 125 113 126 107 98 110 112 107 102 89 80 83 75 64 50 43 55 20 21 19 22 22 24 26 27 27 25 25 28 26 22 19 20 14 10 15 15
155 146 140 138 147 148 127 111 113 105 97 104 112 117 117 108 96 89 77 67 51 31 43 10 23 21 19 19 19 21 23 22 18 21 26 27 26 25 20 15 10 10 14
150 148 142 150 143 129 128 126 133 130 120 124 125 124 123 108 100 91 77 71 47 22 23 2 17 17 18 20 20 19 18 17 16 13 23 25 28 28 21 19 13 11 14
154 149 159 166 155 162 155 147 146 146 142 137 130 120 111 117 120 112 95 72 55 13 13 357 13 14 14 17 20 21 20 16 13 14 25 31 30 25 24 24 18 12 15
153 147 152 161 167 164 156 148 143 141 138 139 137 140 134 120 119 133 122 102 61 11 359 354 5 14 15 15 19 21 19 19 17 18 28 37 31 28 28 26 22 15 13
143 133 153 147 148 150 152 151 151 156 159 159 161 161 155 159 140 130 150 131 136 351 344 358 2 15 16 17 20 19 19 19 19 21 24 32 32 32 29 27 22 19 12